www.pogodaiklimat.ru

Погода и климат >> Архив погоды >> Индия >> Карнатака >> Карвар


ПОГОДА в Карваре

  • Прогноз погоды в Карваре
  • Монитор погоды в Карваре

АРХИВ ПОГОДЫ в Карваре

Время (UTC), дата Ветер
(напр.,м/с)
 
Видим.   Явления Облачность Т
(С)
Тd
(С)
f
(%)
Тe
(С)
Тes
(С)
Комфортность P
(гПа)
Po
(гПа)
Тmin
(С)
Tmax
(С)
R
(мм)
R24
(мм)
S
(см)
06 13.02 З 1 10 км ясно +34.4 +21.8 48 +43 +62 опасность
перегрева
1015.5 1015.0
09 13.02 ЮЗ 1 10 км ясно +36.6 +21.0 40 +43 +59 опасность
перегрева
1013.3 1012.8
12 13.02 ЮЗ 1 10 км ясно +32.6 +23.1 57 +43 +44 опасность
перегрева
1012.5 1012.0 +36.8
03 14.02 штиль 0 4000 м мгла ясно +21.6 +15.2 67 +25 +30 комфорт 1014.8 1014.3 +20.1 +36.8
06 14.02 СЗ 1 10 км ясно +32.6 +20.0 47 +39 +58 опасность
солнечного
удара
1014.7 1014.2
09 14.02 ЮЗ 2 10 км ясно +34.8 +19.8 41 +40 +55 опасность
солнечного
удара
1012.0 1011.5
12 14.02 СЗ 1 10 км ясно +33.0 +21.9 52 +41 +43 опасность
перегрева
1011.3 1010.8 +35.8
03 15.02 штиль 0 4000 м мгла ясно +22.6 +14.9 62 +26 +31 жарко 1015.8 1015.3 +20.9 +35.8
06 15.02 З 1 10 км 6/5 600 м
[Sc Ac trans]
+30.6 +23.0 64 +41 +49 опасность
перегрева
1015.7 1015.2
09 15.02 З 2 10 км 1/1 600 м
[Cu hum]
+33.8 +24.1 57 +46 +59 опасность
перегрева
1013.1 1012.6
12 15.02 СЗ 2 10 км 1/1 600 м
[Cu hum]
+33.0 +23.5 58 +44 +45 опасность
перегрева
1012.9 1012.4 +34.4
03 16.02 штиль 0 4000 м мгла ясно +21.0 +14.1 65 +24 +29 комфорт 1015.7 1015.2 +19.7 +34.4
06 16.02 ЮВ 1 10 км ясно +31.4 +20.6 53 +38 +58 опасность
солнечного
удара
1015.7 1015.2
09 16.02 СЗ 1 10 км ясно +34.0 +21.3 48 +42 +57 опасность
перегрева
1012.9 1012.4
12 16.02 СЗ 3 10 км ясно +29.2 +20.4 59 +36 +37 очень
душно
1012.4 1011.9 +34.4
03 17.02 штиль 0 4000 м мгла ясно +20.2 +13.2 64 +22 +27 комфорт 1015.9 1015.4 +17.9 +34.4
06 17.02 СЗ 1 10 км ясно +29.6 +20.6 58 +36 +56 опасность
солнечного
удара
1015.9 1015.4
09 17.02 СЗ 2 10 км ясно +34.0 +23.4 54 +45 +58 опасность
перегрева
1012.8 1012.3
12 17.02 СЗ 2 10 км ясно +30.0 +21.4 60 +38 +39 очень
душно
1011.8 1011.3 +34.2
03 18.02 ЮВ 1 4000 м мгла ясно +19.8 +16.1 79 +23 +28 комфорт 1014.1 1013.6 +18.1 +34.2
06 18.02 З 2 10 км ясно +30.4 +18.3 48 +35 +53 опасность
солнечного
удара
1013.7 1013.2
09 18.02 З 1 10 км ясно +34.6 +19.2 40 +40 +55 опасность
солнечного
удара
1010.8 1010.3
12 18.02 СЗ 1 10 км ясно +31.0 +17.9 46 +35 +37 очень
душно
1010.1 1009.6 +35.0
03 19.02 штиль 0 4000 м мгла ясно +19.0 +12.2 65 +20 +25 1012.9 1012.4 +17.5 +35.0
06 19.02 З 2 10 км ясно +30.8 +19.9 52 +37 +55 опасность
солнечного
удара
1013.6 1013.1
09 19.02 ЮЗ 1 10 км ясно +32.6 +21.4 52 +41 +57 опасность
перегрева
1011.7 1011.2
12 19.02 ЮЗ 1 10 км ясно +30.6 +21.7 59 +39 +40 очень
душно
1011.4 1010.9 +32.6
03 20.02 штиль 0 4000 м мгла ясно +21.6 +15.2 67 +25 +30 комфорт 1015.0 1014.5 +20.3 +32.6

 

Местоположение метеостанции Карвар (Карнатака, Индия): широта 14.78 долгота 74.13 высота над уровнем моря 4 м.

В архиве по умолчанию представлена погода в Карваре за последнюю неделю. Архивные данные за месяц целиком и за предыдущие месяцы, начиная с января 2011 года, Вы можете получить, выбрав интересующий диапазон дат из раскрывающегося списка и нажав кнопку "Ввод!".


*Определитесь, кто Вы:
робот инопланетянин человек

Внимание! Время в таблицах - всемирное. Для получения местного времени необходимо прибавить поправку, которая равна 5.5 ч.

Смотрите также архив погоды в соседних городах и на ближайших метеорологических станциях:

Погода в Хоннаваре (Карнатака, Индия) (65 км)
Погода в Мормугао (Гоа, Индия) (80 км)
Погода в Панаджи (Гоа, Индия) (85 км)
Погода в Ширали (Карнатака, Индия) (90 км)
Погода в Дхарваде (Карнатака, Индия) (120 км)
Погода в Белгауме (Карнатака, Индия) (127 км)
Погода в Белгаум аэропорту (Карнатака, Индия) (130 км)
Погода в Венгерле (Махараштра, Индия) (133 км)
Погода в Хавери (Карнатака, Индия) (137 км)
Погода на Агамбе (Карнатака, Индия) (175 км)

Пояснения к столбцам:

Ветер - указаны скорость ветра в м/с - средняя за 10 мин, порывы в срок и между сроками (в фигурных скобках) и направление, откуда дует ветер: С - северный, СВ - северо-восточный, В - восточный, ЮВ - юго-восточный, Ю - южный, ЮЗ - юго-западный, З - западный, СЗ - северо-западный.
Видимость - горизонтальная дальность видимости в метрах или километрах. При видимости от 1 до 10 км при отсутствии осадков обычно наблюдается дымка, при ухудшении видимости до 1 км и менее - туман. В сухую погоду видимость может ухудшаться дымом, пылью или мглою.
Явления - указаны атмосферные явления, наблюдавшиеся в срок или в последний час перед сроком; фигурными скобками обозначены явления, наблюдавшиеся между сроками (за 1-3 часа до срока); квадратными скобками обозначены град или гололедные отложения с указанием их диаметра в мм.
Облачность - указаны через наклонную черту общая и нижняя облачность в баллах и высота нижней границы облаков в метрах; квадратными скобками обозначены формы облаков: Ci - перистые, Cs - перисто-слоистые, Cc - перисто-кучевые, Ac - высококучевые, As - высокослоистые, Sc - слоисто-кучевые, Ns - слоисто-дождевые, Cu - кучевые, Cb - кучево-дождевые. Подробнее классификацию облаков см. в Атласе облаков (PDF).
T - Температура воздуха - температура, измеренная на высоте 2 м над землей.
Td - Температура точки росы - температура, при понижении до которой содержащийся в воздухе водяной пар достигнет насыщения.
f - Относительная влажность воздуха - влажноcть воздуха, измеренная на высоте 2 м над землей.
Te - Эффективная температура - температура, которую ощущает одетый по сезону человек в тени. Характеристика душности погоды. При расчете учитывается влияние влажности воздуха и скорости ветра на теплоощущения человека.
Tes - Эффективная температура на солнце - температура, которую ощущает человек, с поправкой на солнечный нагрев. Характеристика знойности погоды. Зависит от высоты солнца над горизонтом, облачности и скорости ветра. Ночью, в пасмурную погоду, а также при ветре 12 м/с и более поправка равна нулю.
P - Атмосферное давление - приведенное к уровню моря атмосферное давление.
Po - Атмосферное давление - измеренное на уровне метеостанции атмосферное давление.
Tmin - Минимальная температура - минимум температуры воздуха на высоте 2 м над землей.
Tmax - Максимальная температура - максимум температуры воздуха на высоте 2 м над землей.
R - Количество осадков - Количество выпавших осадков за период времени, мм. При наведении курсора мыши на число - период времени, за который выпало указанное количество осадков.
R24 - Количество осадков - Количество выпавших осадков за 24 часа, мм.
S - Снежный покров - Высота снежного покрова, см. При наведении курсора мыши на число - состояние снежного покрова и степень покрытия местности в баллах.